Flag for U.S.A. Weather past 2 weeks in Sioux Falls, South Dakota, U.S.A.

Now
56 °F

Clear.


Feels Like: 56 °F
Forecast: 54 / 82 °F
Wind: No wind

Location: Foss Field

Current Time: Aug 29, 2015 at 1:33:31 AM

Latest Report: Aug 29, 2015 at 12:56 AM


Visibility: 10 mi

Pressure: 30.03 "Hg

Humidity: 97%

Dew point: 55 °F

Location of Sioux FallsLocation

Historic Weather in Sioux Falls — Graph

°F

Sioux Falls temperature yesterday

Maximum temperature yesterday: 71 °F (at 3:56 PM)
Minimum temperature yesterday: 58 °F (at 11:56 PM)
Average temperature yesterday: 66 °F

Past Weeks' High & Low Weather Summary

 TemperatureHumidityPressure
High91 °F (Aug 14, 2:56 PM)97% (Aug 17, 12:00 AM)30.22 "Hg (Aug 17, 12:00 AM)
Low43 °F (Aug 25, 6:56 AM)34% (Aug 19, 2:56 AM)29.53 "Hg (Aug 18, 5:56 PM)
Average67 °F73%29.94 "Hg
* Reported Aug 13 11:56 PM — Aug 28 11:56 PM, Sioux Falls, Weather by CustomWeather, © 2015

Note: Actual official high and low records may vary slightly from our data, if they occured in-between our weather recording intervals... More about our weather records

Advertising

Sioux Falls weather history for previous 24 hours

 ConditionsComfort  
Time TempWeatherWind HumidityBarometerVisibility
11:56 PM
Fri, Aug 28
58 °FPassing clouds.No wind93%30.02 "Hg10 mi
10:56 PM59 °FPassing clouds.3 mph90%30.02 "Hg10 mi
9:56 PM61 °FPassing clouds.7 mph87%30.01 "Hg10 mi
8:56 PM62 °FScattered clouds.6 mph86%30.00 "Hg10 mi
7:56 PM65 °FOvercast.9 mph81%29.98 "Hg10 mi
6:56 PM69 °FMostly cloudy.10 mph76%29.96 "Hg10 mi
5:56 PM70 °FBroken clouds.12 mph73%29.94 "Hg10 mi
5:02 PM71 °FBroken clouds.14 mph71%29.96 "Hg10 mi
3:56 PM71 °FMore clouds than sun.12 mph73%29.94 "Hg10 mi
2:56 PM69 °FOvercast.15 mph79%29.93 "Hg10 mi
1:56 PM70 °FOvercast.16 mph76%29.93 "Hg10 mi
12:56 PM70 °FCloudy.20 mph79%29.92 "Hg10 mi
11:56 AM70 °FCloudy.15 mph84%29.93 "Hg10 mi
10:56 AM68 °FMostly cloudy.15 mph90%29.92 "Hg10 mi
9:56 AM66 °FLight rain. Fog.14 mph93%29.91 "Hg2 mi
8:56 AM65 °FLow clouds.9 mph94%29.90 "Hg10 mi
8:01 AM65 °FLight rain. Fog.12 mph94%29.91 "Hg5 mi
6:56 AM64 °FMostly cloudy.9 mph94%29.89 "Hg10 mi
5:56 AM64 °FMostly cloudy.8 mph94%29.88 "Hg10 mi
4:56 AM64 °FLow clouds.8 mph94%29.89 "Hg10 mi
3:56 AM65 °FMostly cloudy.13 mph94%29.89 "Hg10 mi
2:56 AM66 °FMostly cloudy.12 mph93%29.90 "Hg10 mi
1:56 AM66 °FMostly cloudy.12 mph93%29.91 "Hg10 mi
Weather by CustomWeather, © 2015

See weather overviewHow to use our weather pages